Location: AstroGeek's Observatory
(41.9520°N, 70.9880°W)
Time: 06:22:17
(UTC-04:00)

ISS - All Passes

Search period start: 30 September 2014 00:00
Search period end: 10 October 2014 00:00
Orbit: 413 x 416 km, 51.6° (Epoch: 30 September)

Date Brightness Start Highest point End Pass type
(mag) Time Alt. Az. Time Alt. Az. Time Alt. Az.
30 Sep - 00:00:00 33° N 23:59:45 34° NNW 00:02:38 10° NE night (unlit)
30 Sep - 01:34:49 10° NW 01:36:58 16° N 01:39:08 10° NE night (unlit)
30 Sep - 03:12:03 10° NW 03:14:36 20° NNE 03:17:08 10° ENE visible
30 Sep - 04:48:23 10° NW 04:51:43 75° NE 04:55:02 10° ESE visible
30 Sep - 06:26:23 10° W 06:28:00 13° SW 06:29:38 10° SSW daylight
30 Sep - 21:31:28 10° S 21:33:56 19° SE 21:36:24 10° E night (unlit)
30 Sep - 23:07:07 10° WSW 23:10:23 52° NNW 23:13:39 10° NE night (unlit)
01 Oct - 00:45:17 10° NW 00:47:39 18° N 00:50:00 10° NE night (unlit)
01 Oct - 02:23:00 10° NW 02:25:17 17° N 02:27:34 10° NE night (unlit)
01 Oct - 03:59:22 10° NW 04:02:36 46° NNE 04:05:49 10° ESE visible
01 Oct - 05:36:26 10° W 05:39:07 23° SW 05:41:47 10° S visible
01 Oct - 20:44:02 10° SSE 20:45:03 11° SE 20:46:03 10° ESE night (unlit)
01 Oct - 22:17:56 10° SW 22:21:15 87° NW 22:24:36 10° NE night (unlit)
01 Oct - 23:55:42 10° WNW 23:58:20 21° NNW 00:00:57 10° NE night (unlit)
02 Oct - 01:33:49 10° NW 01:35:56 16° N 01:38:03 10° NE night (unlit)
02 Oct - 03:10:22 10° NW 03:13:23 31° NNE 03:16:24 10° E night (unlit)
02 Oct - 04:47:00 10° WNW 04:50:08 39° SW 04:53:15 10° SSE visible
02 Oct - 21:28:56 10° SW 21:32:10 52° SE 21:35:26 10° ENE night (unlit)
02 Oct - 23:06:07 10° W 23:09:01 27° NNW 23:11:56 10° NE night (unlit)
03 Oct - 00:44:27 10° NW 00:46:32 15° N 00:48:37 10° NE night (unlit)
03 Oct - 02:21:21 10° NW 02:24:06 23° NNE 02:26:52 10° ENE night (unlit)
03 Oct - 03:57:45 10° WNW 04:01:04 72° SW 04:04:22 10° SE visible
03 Oct - 20:40:12 10° SSW 20:43:08 29° SE 20:46:04 10° ENE visible
03 Oct - 22:16:37 10° W 22:19:45 38° NNW 22:22:54 10° NE night (unlit)
03 Oct - 23:54:56 10° NW 23:57:08 16° N 23:59:20 10° NE night (unlit)
04 Oct - 01:32:16 10° NW 01:34:45 19° NNE 01:37:14 10° ENE night (unlit)
04 Oct - 03:08:36 10° NW 03:11:56 66° NNE 03:15:14 10° ESE night (unlit)
04 Oct - 04:46:17 10° W 04:48:16 15° SW 04:50:14 10° SSW night (unlit)
04 Oct - 19:51:53 10° S 19:54:07 17° SE 19:56:22 10° E visible
04 Oct - 21:27:13 10° WSW 21:30:30 59° NNW 21:33:49 10° NE night (unlit)
04 Oct - 23:05:18 10° WNW 23:07:43 18° NNW 23:10:09 10° NE night (unlit)
05 Oct - 00:43:07 10° NW 00:45:21 17° N 00:47:35 10° NE night (unlit)
05 Oct - 02:19:30 10° NW 02:22:42 41° NNE 02:25:52 10° E night (unlit)
05 Oct - 03:56:26 10° WNW 03:59:16 26° SW 04:02:04 10° SSE night (unlit)
05 Oct - 20:37:59 10° SW 20:41:18 82° SE 20:44:39 10° ENE visible
05 Oct - 22:15:37 10° WNW 22:18:19 22° NNW 22:21:01 10° NE night (unlit)
05 Oct - 23:53:48 10° NW 23:55:54 16° N 23:58:00 10° NE night (unlit)
06 Oct - 01:30:25 10° NW 01:33:23 29° NNE 01:36:20 10° E night (unlit)
06 Oct - 03:06:59 10° WNW 03:10:11 46° SW 03:13:22 10° SSE night (unlit)
06 Oct - 19:48:57 10° SSW 19:52:09 45° SE 19:55:21 10° ENE visible
06 Oct - 21:25:58 10° W 21:28:56 29° NNW 21:31:54 10° NE visible
06 Oct - 23:04:19 10° NW 23:06:25 16° N 23:08:31 10° NE night (unlit)
07 Oct - 00:41:18 10° NW 00:44:00 22° NNE 00:46:41 10° ENE night (unlit)
07 Oct - 02:17:41 10° WNW 02:21:00 83° SW 02:24:19 10° SE night (unlit)
07 Oct - 19:00:13 10° SSW 19:03:01 25° SE 19:05:50 10° ENE visible
07 Oct - 20:36:24 10° W 20:39:35 42° NNW 20:42:46 10° NE visible
07 Oct - 22:14:40 10° NW 22:16:55 17° N 22:19:10 10° NE night (unlit)
07 Oct - 23:52:08 10° NW 23:54:33 18° NNE 23:56:57 10° ENE night (unlit)
08 Oct - 01:28:27 10° NW 01:31:45 58° NNE 01:35:02 10° ESE night (unlit)
08 Oct - 03:05:52 10° W 03:08:08 17° SW 03:10:24 10° S night (unlit)
08 Oct - 18:12:00 10° SSE 18:13:57 15° SE 18:15:54 10° E daylight
08 Oct - 19:46:57 10° WSW 19:50:16 67° NNW 19:53:35 10° NE visible
08 Oct - 21:24:56 10° WNW 21:27:25 19° NNW 21:29:55 10° NE visible
08 Oct - 23:02:51 10° NW 23:05:02 16° N 23:07:14 10° NE night (unlit)
09 Oct - 00:39:17 10° NW 00:42:25 37° NNE 00:45:32 10° E night (unlit)
09 Oct - 02:16:05 10° WNW 02:19:02 30° SW 02:21:58 10° SSE night (unlit)
09 Oct - 18:57:41 10° SW 19:00:59 71° SE 19:04:18 10° ENE visible
09 Oct - 20:35:10 10° WNW 20:37:56 24° NNW 20:40:42 10° NE visible
09 Oct - 22:13:24 10° NW 22:15:29 15° N 22:17:34 10° NE night (unlit)
09 Oct - 23:50:06 10° NW 23:53:00 27° NNE 23:55:53 10° E night (unlit)
